Regional Weather Roundup
Issued by NWS Portland, ME

Current Version | Previous Version | Text Only | Print | Product List | Glossary Off
Versions: 1 2 3 4 5 6 7 8 9 10 11 12 13 14 15 16 17 18 19 20 21 22 23 24 25 26 27 28 29 30 31 32 33 34 35 36 37 38 39 40 41 42 43 44 45 46 47 48 49 50

000
ASUS41 KGYX 011705
RWRGYX
WEATHER ROUNDUP FOR MAINE AND NEW HAMPSHIRE
NATIONAL WEATHER SERVICE GRAY ME
100 PM EDT SAT AUG 01 2015

MEZ002-005-006-010-012-015-018-020-021-024-026-027-029-011800-
MAINE

CITY           SKY/WX    TMP DP  RH WIND       PRES   REMARKS
PORTLAND       PTSUNNY   82  58  43 W13G18    29.70F
SANFORD        SUNNY     82  55  39 W12G20    29.73S
BAR HARBOR     MOSUNNY   75  63  64 S16       29.69F
WISCASSET      PTSUNNY   80  63  55 S8        29.70F
ROCKLAND       SUNNY     75  63  64 S10       29.68F
FRYEBURG       SUNNY     81  62  52 CALM      29.71F
LEWISTONAUBURN PTSUNNY   81  57  44 SW13      29.70F
AUGUSTA        MOSUNNY   80  58  46 W13G18    29.69F
WATERVILLE     MOSUNNY   79  61  53 W6        29.65F
BANGOR         PTSUNNY   79  61  53 S9        29.66F
GREENVILLE       N/A     70  59  68 VRB6      29.69S
MILLINOCKET    PTSUNNY   76  62  62 CALM      29.66F
HOULTON        MOSUNNY   79  58  48 S9        29.63F
PRESQUE ISLE   CLOUDY    73  57  56 S5        29.62F
FRENCHVILLE    PTSUNNY   70  58  65 W8        29.62F
CARIBOU        CLOUDY    73  59  61 S3        29.62F
$$

NHZ002-005-008-009-011-012-014-011800-
NEW HAMPSHIRE

CITY           SKY/WX    TMP DP  RH WIND       PRES   REMARKS
PORTSMOUTH     PTSUNNY   83  61  45 W10       29.71F
ROCHESTER      MOSUNNY   84  58  40 VRB6      29.72F
NASHUA         PTSUNNY   82  60  47 W9        29.74F
MANCHESTER     PTSUNNY   82  58  43 W8        29.72F
CONCORD        MOSUNNY   84  57  39 W10G23    29.73F
LACONIA        PTSUNNY   79  57  47 SW12      29.72F
PLYMOUTH       FAIR      78  65  62 W9        29.72F
BERLIN         PTSUNNY   75  57  53 VRB5      29.72F
WHITEFIELD     MOSUNNY   70  59  68 S6        29.74S
JAFFREY        MOSUNNY   79  59  50 W12       29.79S
KEENE          MOSUNNY   81  55  41 W10       29.76F
LEBANON        SUNNY     81  55  40 W13       29.73F
MT WASHINGTON  PTSUNNY   52  48  87 W32         N/A  VSB 1
$$

VTZ005-007-008-011800-
VERMONT

CITY           SKY/WX    TMP DP  RH WIND       PRES   REMARKS
ST JOHNSBURY     N/A     78  54  43 MISG      29.70F
MONTPELIER     CLOUDY    69  52  54 NW7G17    29.80S
BURLINGTON     LGT RAIN  72  57  59 NW8       29.74S
$$

MAZ007-012-024-CTZ003-RIZ002-NYZ038-NYZ072-011800-
SOUTHERN NEW ENGLAND AND NY

CITY           SKY/WX    TMP DP  RH WIND       PRES   REMARKS
BOSTON         PTSUNNY   87  59  38 SW16G23   29.73F
WORCESTER      MOSUNNY   79  59  50 SW14      29.80S
NANTUCKET      SUNNY     79  69  71 SW17      29.80S
PROVIDENCE     PTSUNNY   89  59  36 S18G24    29.76S
HARTFORD       PTSUNNY   85  60  42 W9        29.76F
ALBANY         MOSUNNY   82  56  40 NW16      29.79S
NEW YORK CITY  MOSUNNY   87  58  37 W8        29.79F
$$

ANZ081-ANZ082-ANZ150-NHZ014-MEZ023>029-011800-
COASTAL MARINE OBSERVATIONS

STATION/POSITION TIME  TEMP    WIND        PRES    WAVE
                       AIR SEA DIR/SP/G            HT/PER
                 (UTC) (F)     (DEG/KT/KT) (MB)    (FT/S)
MOUNT DESERT ROC 1700   64     170/ 21/ 22 1006.3F
MATINICUS ROCK   1600   64     190/ 20/ 20 1006.1F
ISLE OF SHOALS   1600   77     260/ 12/ 13 1006.4R
JEFFREYS LEDGE   1603      67                N/A     2/ 7
CASHES LEDGE BUO 1650   69                 1006.3F   3/ 8
GEORGES BANK BUO 1550   67 67  200/  6/  8 1009.7    6/ 8
$$

.............KEY..............
   WCI - WIND CHILL
   TC  - TEMPERATURE IN CELSIUS
   VSB - VISIBILITY IN MILES
   HX  - HEAT INDEX
   FAIR- INDICATES FEW OR NO CLOUDS BELOW 12,000 FT, WITH NO
         SIGNIFICANT WEATHER AND/OR OBSTRUCTIONS TO VISIBILITY.




USA.gov is the U.S. government's official web portal to all federal, state and local government web resources and services.